UAL624 KORD-KCMH

Flight info

Callsign UAL624
Flight time 0h 46m
Altitude 33000
Route MOBLE ADIME SEWTO FWA BRYEN DUBLN1
Aircraft A320/M-SDE3FGHIRWY/LB1

Departure

Time 2026-05-09 01:02
Airport Chicago O'Hare International Airport (KORD)

Arrival

Time 2026-05-09 01:48
Airport John Glenn Columbus International Airport (KCMH)
Time Latitude Longitude Altitude Speed Heading
2026-05-09 00:27 41.97501 -87.90376 674 ft 0 kts 46°
2026-05-09 00:44 41.97493 -87.90388 674 ft 2 kts 46°
2026-05-09 00:45 41.97483 -87.90402 675 ft 2 kts 46°
2026-05-09 00:45 41.97472 -87.90417 675 ft 2 kts 46°
2026-05-09 00:45 41.97462 -87.90432 675 ft 2 kts 46°
2026-05-09 00:45 41.97456 -87.90441 675 ft 1 kts 82°
2026-05-09 00:46 41.97457 -87.90450 675 ft 0 kts 132°
2026-05-09 00:46 41.97453 -87.90443 675 ft 3 kts 131°
2026-05-09 00:46 41.97422 -87.90423 675 ft 5 kts 167°
2026-05-09 00:46 41.97402 -87.90421 675 ft 0 kts 181°
2026-05-09 00:51 41.97354 -87.90421 675 ft 11 kts 180°
2026-05-09 00:51 41.97272 -87.90421 674 ft 12 kts 180°
2026-05-09 00:51 41.97254 -87.90421 675 ft 0 kts 180°
2026-05-09 00:54 41.97248 -87.90421 675 ft 1 kts 180°
2026-05-09 00:54 41.97205 -87.90419 675 ft 11 kts 167°
2026-05-09 00:55 41.97131 -87.90413 674 ft 11 kts 210°
2026-05-09 00:55 41.97062 -87.90466 674 ft 11 kts 195°
2026-05-09 00:55 41.97023 -87.90551 675 ft 11 kts 264°
2026-05-09 00:55 41.97023 -87.90664 675 ft 12 kts 270°
2026-05-09 00:56 41.97023 -87.90781 675 ft 12 kts 270°
2026-05-09 00:56 41.97023 -87.90903 674 ft 13 kts 270°
2026-05-09 00:56 41.97023 -87.91030 675 ft 13 kts 270°
2026-05-09 00:56 41.97022 -87.91161 675 ft 14 kts 269°
2026-05-09 00:57 41.97021 -87.91294 675 ft 14 kts 268°
2026-05-09 00:57 41.97022 -87.91429 675 ft 14 kts 270°
2026-05-09 00:57 41.97022 -87.91569 675 ft 14 kts 269°
2026-05-09 00:57 41.97022 -87.91708 675 ft 15 kts 270°
2026-05-09 00:58 41.97022 -87.91849 675 ft 15 kts 269°
2026-05-09 00:58 41.97021 -87.91991 675 ft 15 kts 270°
2026-05-09 00:58 41.97021 -87.92136 675 ft 15 kts 270°
2026-05-09 00:58 41.97021 -87.92280 675 ft 15 kts 270°
2026-05-09 00:59 41.97021 -87.92415 675 ft 7 kts 270°
2026-05-09 00:59 41.97021 -87.92445 675 ft 0 kts 270°
2026-05-09 01:00 41.97021 -87.92461 675 ft 9 kts 270°
2026-05-09 01:00 41.96967 -87.92518 675 ft 11 kts 181°
2026-05-09 01:01 41.96890 -87.92502 675 ft 11 kts 125°
2026-05-09 01:01 41.96883 -87.92382 675 ft 24 kts 90°
2026-05-09 01:01 41.96885 -87.91808 675 ft 95 kts 90°
2026-05-09 01:01 41.96886 -87.90627 675 ft 154 kts 89°
2026-05-09 01:02 41.96910 -87.89098 1054 ft 170 kts 90°
2026-05-09 01:02 41.96938 -87.87544 1817 ft 166 kts 90°
2026-05-09 01:02 41.96867 -87.86041 2501 ft 166 kts 101°
2026-05-09 01:02 41.96605 -87.84479 2921 ft 179 kts 105°
2026-05-09 01:03 41.96276 -87.82769 3285 ft 196 kts 105°
2026-05-09 01:03 41.96061 -87.80911 3655 ft 213 kts 94°
2026-05-09 01:03 41.96034 -87.78808 4057 ft 231 kts 90°
2026-05-09 01:03 41.96038 -87.76560 4402 ft 253 kts 90°
2026-05-09 01:04 41.96029 -87.74139 4920 ft 270 kts 90°
2026-05-09 01:04 41.96002 -87.71556 5512 ft 285 kts 90°
2026-05-09 01:04 41.95961 -87.68859 6324 ft 291 kts 91°
2026-05-09 01:04 41.95913 -87.66155 7172 ft 295 kts 90°
2026-05-09 01:05 41.95858 -87.63407 8010 ft 299 kts 90°
2026-05-09 01:05 41.95801 -87.60619 8851 ft 303 kts 90°
2026-05-09 01:05 41.95683 -87.54909 10451 ft 313 kts 89°
2026-05-09 01:06 41.95621 -87.51909 10867 ft 329 kts 89°
2026-05-09 01:06 41.95555 -87.48760 11340 ft 345 kts 89°
2026-05-09 01:06 41.95484 -87.45519 12001 ft 352 kts 89°
2026-05-09 01:06 41.95409 -87.42202 12733 ft 356 kts 89°
2026-05-09 01:07 41.95333 -87.38904 13411 ft 360 kts 89°
2026-05-09 01:07 41.95255 -87.35520 14060 ft 364 kts 89°
2026-05-09 01:07 41.95178 -87.32168 14712 ft 369 kts 90°
2026-05-09 01:07 41.95097 -87.28696 15316 ft 373 kts 90°
2026-05-09 01:08 41.95015 -87.25211 15913 ft 378 kts 90°
2026-05-09 01:08 41.94929 -87.21636 16505 ft 383 kts 90°
2026-05-09 01:08 41.94841 -87.18069 17085 ft 387 kts 90°
2026-05-09 01:08 41.94750 -87.14432 17668 ft 391 kts 90°
2026-05-09 01:09 41.94658 -87.10791 18221 ft 396 kts 91°
2026-05-09 01:09 41.94566 -87.07065 18774 ft 400 kts 90°
2026-05-09 01:09 41.94577 -87.03360 19279 ft 405 kts 88°
2026-05-09 01:09 41.94634 -86.99565 19786 ft 409 kts 88°
2026-05-09 01:10 41.94701 -86.95704 20310 ft 414 kts 87°
2026-05-09 01:10 41.94767 -86.91845 20786 ft 418 kts 88°
2026-05-09 01:10 41.94830 -86.87910 21297 ft 422 kts 88°
2026-05-09 01:10 41.94871 -86.83994 21787 ft 425 kts 92°
2026-05-09 01:11 41.94318 -86.80119 22188 ft 427 kts 115°
2026-05-09 01:11 41.92791 -86.76726 22655 ft 422 kts 132°
2026-05-09 01:11 41.90944 -86.73672 23095 ft 425 kts 135°
2026-05-09 01:11 41.89077 -86.70616 23516 ft 430 kts 134°
2026-05-09 01:12 41.87233 -86.67455 23956 ft 434 kts 132°
2026-05-09 01:12 41.85419 -86.64195 24385 ft 439 kts 131°
2026-05-09 01:12 41.83628 -86.60878 24823 ft 443 kts 131°
2026-05-09 01:12 41.81827 -86.57484 25243 ft 447 kts 131°
2026-05-09 01:13 41.80022 -86.54060 25683 ft 450 kts 130°
2026-05-09 01:13 41.78238 -86.50652 26111 ft 453 kts 131°
2026-05-09 01:13 41.76416 -86.47172 26548 ft 456 kts 131°
2026-05-09 01:13 41.74604 -86.43720 26940 ft 459 kts 131°
2026-05-09 01:14 41.72763 -86.40207 27339 ft 462 kts 131°
2026-05-09 01:14 41.70905 -86.36667 27712 ft 466 kts 131°
2026-05-09 01:14 41.69058 -86.33152 28087 ft 468 kts 132°
2026-05-09 01:14 41.67173 -86.29562 28472 ft 471 kts 133°
2026-05-09 01:15 41.65300 -86.26010 28832 ft 473 kts 133°
2026-05-09 01:15 41.63388 -86.22388 29140 ft 477 kts 133°
2026-05-09 01:15 41.61469 -86.18753 29482 ft 480 kts 133°
2026-05-09 01:15 41.59554 -86.15131 29837 ft 482 kts 133°
2026-05-09 01:16 41.57630 -86.11492 30152 ft 484 kts 133°
2026-05-09 01:16 41.55673 -86.07792 30595 ft 484 kts 133°
2026-05-09 01:16 41.53738 -86.04139 31078 ft 482 kts 133°
2026-05-09 01:17 41.49838 -85.96800 31758 ft 485 kts 133°
2026-05-09 01:17 41.47884 -85.93130 32052 ft 488 kts 133°
2026-05-09 01:17 41.45926 -85.89456 32357 ft 490 kts 133°
2026-05-09 01:17 41.43967 -85.85788 32675 ft 491 kts 133°
2026-05-09 01:18 41.41990 -85.82084 32833 ft 493 kts 133°
2026-05-09 01:18 41.39993 -85.78350 32838 ft 494 kts 133°
2026-05-09 01:18 41.36022 -85.70939 32841 ft 495 kts 133°
2026-05-09 01:19 41.32024 -85.63486 32841 ft 494 kts 133°
2026-05-09 01:19 41.28039 -85.56086 32838 ft 494 kts 133°
2026-05-09 01:20 41.24035 -85.48676 32838 ft 494 kts 133°
2026-05-09 01:20 41.22062 -85.45023 32686 ft 489 kts 133°
2026-05-09 01:20 41.20090 -85.41375 32153 ft 488 kts 133°
2026-05-09 01:21 41.18103 -85.37714 31555 ft 486 kts 132°
2026-05-09 01:21 41.16147 -85.34106 31016 ft 484 kts 134°
2026-05-09 01:21 41.14184 -85.30490 30382 ft 483 kts 133°
2026-05-09 01:21 41.12215 -85.26881 29663 ft 483 kts 133°
2026-05-09 01:22 41.10249 -85.23271 29078 ft 480 kts 133°
2026-05-09 01:22 41.08329 -85.19746 28622 ft 474 kts 133°
2026-05-09 01:22 41.06410 -85.16220 28111 ft 469 kts 133°
2026-05-09 01:22 41.04529 -85.12772 27583 ft 465 kts 133°
2026-05-09 01:23 41.02630 -85.09300 27088 ft 460 kts 133°
2026-05-09 01:23 41.00773 -85.05907 26602 ft 456 kts 133°
2026-05-09 01:23 40.98923 -85.02531 26078 ft 452 kts 133°
2026-05-09 01:23 40.97089 -84.99191 25559 ft 448 kts 132°
2026-05-09 01:24 40.95277 -84.95890 25064 ft 444 kts 133°
2026-05-09 01:24 40.93480 -84.92620 24556 ft 440 kts 133°
2026-05-09 01:24 40.91679 -84.89345 24096 ft 435 kts 133°
2026-05-09 01:24 40.89934 -84.86176 23636 ft 430 kts 132°
2026-05-09 01:25 40.88155 -84.82957 23146 ft 427 kts 133°
2026-05-09 01:25 40.86458 -84.79774 22880 ft 426 kts 128°
2026-05-09 01:25 40.84959 -84.76371 22863 ft 433 kts 122°
2026-05-09 01:25 40.83703 -84.72746 22858 ft 436 kts 116°
2026-05-09 01:26 40.82559 -84.69053 22860 ft 437 kts 115°
2026-05-09 01:26 40.81431 -84.65322 22860 ft 437 kts 115°
2026-05-09 01:26 40.80306 -84.61614 22866 ft 437 kts 115°
2026-05-09 01:26 40.79168 -84.57895 22862 ft 436 kts 116°
2026-05-09 01:27 40.78031 -84.54211 22683 ft 437 kts 116°
2026-05-09 01:27 40.76893 -84.50542 22383 ft 432 kts 116°
2026-05-09 01:27 40.75755 -84.46887 22091 ft 429 kts 115°
2026-05-09 01:27 40.74629 -84.43282 21797 ft 426 kts 115°
2026-05-09 01:28 40.73505 -84.39690 21499 ft 424 kts 115°
2026-05-09 01:28 40.72384 -84.36109 21199 ft 421 kts 115°
2026-05-09 01:28 40.71264 -84.32536 20902 ft 419 kts 115°
2026-05-09 01:28 40.70152 -84.28990 20601 ft 416 kts 115°
2026-05-09 01:29 40.69054 -84.25493 20297 ft 413 kts 115°
2026-05-09 01:29 40.67963 -84.22025 19992 ft 410 kts 115°
2026-05-09 01:29 40.66880 -84.18582 19696 ft 407 kts 115°
2026-05-09 01:29 40.65794 -84.15142 19396 ft 404 kts 115°
2026-05-09 01:30 40.64716 -84.11725 19087 ft 402 kts 115°
2026-05-09 01:30 40.63644 -84.08330 18820 ft 400 kts 114°
2026-05-09 01:30 40.62584 -84.04976 18553 ft 398 kts 114°
2026-05-09 01:30 40.61529 -84.01648 18280 ft 396 kts 114°
2026-05-09 01:31 40.60470 -83.98307 18006 ft 393 kts 114°
2026-05-09 01:31 40.59423 -83.95006 17720 ft 391 kts 114°
2026-05-09 01:31 40.58373 -83.91704 17449 ft 390 kts 114°
2026-05-09 01:31 40.57341 -83.88460 17174 ft 388 kts 114°
2026-05-09 01:32 40.56289 -83.85155 16887 ft 387 kts 115°
2026-05-09 01:32 40.55262 -83.81933 16610 ft 385 kts 115°
2026-05-09 01:32 40.54224 -83.78690 16336 ft 383 kts 114°
2026-05-09 01:32 40.53189 -83.75458 16061 ft 381 kts 114°
2026-05-09 01:33 40.52164 -83.72260 15789 ft 379 kts 114°
2026-05-09 01:33 40.51151 -83.69099 15506 ft 377 kts 114°
2026-05-09 01:33 40.50138 -83.65946 15243 ft 376 kts 115°
2026-05-09 01:33 40.49120 -83.62776 14958 ft 374 kts 115°
2026-05-09 01:34 40.48107 -83.59629 14688 ft 372 kts 115°
2026-05-09 01:34 40.47107 -83.56528 14418 ft 370 kts 115°
2026-05-09 01:34 40.46106 -83.53428 14142 ft 368 kts 115°
2026-05-09 01:34 40.45101 -83.50349 13971 ft 366 kts 116°
2026-05-09 01:35 40.43922 -83.47375 13966 ft 365 kts 123°
2026-05-09 01:35 40.42535 -83.44638 13961 ft 364 kts 129°
2026-05-09 01:35 40.41022 -83.41929 13961 ft 364 kts 129°
2026-05-09 01:35 40.39512 -83.39276 13959 ft 364 kts 129°
2026-05-09 01:36 40.38017 -83.36641 13966 ft 365 kts 129°
2026-05-09 01:36 40.36492 -83.33935 13972 ft 364 kts 130°
2026-05-09 01:36 40.35004 -83.31286 13893 ft 363 kts 130°
2026-05-09 01:36 40.33496 -83.28599 13264 ft 368 kts 130°
2026-05-09 01:37 40.31955 -83.25932 12593 ft 372 kts 134°
2026-05-09 01:37 40.30172 -83.23522 12176 ft 365 kts 143°
2026-05-09 01:37 40.28232 -83.21417 11780 ft 359 kts 146°
2026-05-09 01:37 40.26288 -83.19421 11461 ft 353 kts 147°
2026-05-09 01:38 40.24355 -83.17445 11172 ft 346 kts 147°
2026-05-09 01:38 40.22495 -83.15532 10862 ft 341 kts 147°
2026-05-09 01:38 40.20673 -83.13533 10526 ft 339 kts 139°
2026-05-09 01:38 40.19181 -83.11161 10204 ft 339 kts 128°
2026-05-09 01:39 40.17916 -83.08623 9897 ft 335 kts 126°
2026-05-09 01:39 40.16681 -83.06033 9590 ft 330 kts 126°
2026-05-09 01:39 40.15446 -83.03565 9288 ft 325 kts 128°
2026-05-09 01:39 40.14174 -83.01135 8978 ft 319 kts 129°
2026-05-09 01:40 40.12931 -82.98789 8522 ft 312 kts 129°
2026-05-09 01:40 40.11717 -82.96497 8125 ft 303 kts 129°
2026-05-09 01:40 40.10547 -82.94313 7697 ft 295 kts 131°
2026-05-09 01:40 40.09384 -82.92113 7205 ft 292 kts 122°
2026-05-09 01:41 40.08800 -82.89597 6794 ft 293 kts 100°
2026-05-09 01:41 40.08647 -82.86992 6395 ft 288 kts 96°
2026-05-09 01:41 40.08555 -82.84403 5997 ft 281 kts 96°
2026-05-09 01:41 40.08456 -82.81865 5572 ft 277 kts 96°
2026-05-09 01:42 40.08351 -82.79392 5150 ft 270 kts 96°
2026-05-09 01:42 40.08243 -82.77008 4732 ft 264 kts 96°
2026-05-09 01:42 40.08134 -82.74657 4309 ft 257 kts 96°
2026-05-09 01:42 40.08023 -82.72363 3888 ft 252 kts 96°
2026-05-09 01:43 40.07709 -82.70142 3451 ft 243 kts 120°
2026-05-09 01:43 40.06701 -82.68530 3072 ft 226 kts 153°
2026-05-09 01:43 40.05306 -82.67822 2990 ft 204 kts 178°
2026-05-09 01:43 40.03916 -82.67818 3043 ft 198 kts 189°
2026-05-09 01:44 40.02575 -82.68021 3062 ft 189 kts 192°
2026-05-09 01:44 40.01320 -82.68386 3005 ft 181 kts 210°
2026-05-09 01:44 40.00462 -82.69512 3005 ft 178 kts 237°
2026-05-09 01:44 39.99857 -82.70887 2993 ft 168 kts 242°
2026-05-09 01:45 39.99318 -82.72224 2995 ft 167 kts 242°
2026-05-09 01:45 39.98925 -82.73659 2927 ft 170 kts 266°
2026-05-09 01:45 39.99109 -82.75179 2729 ft 173 kts 280°
2026-05-09 01:45 39.99368 -82.76714 2492 ft 171 kts 278°
2026-05-09 01:46 39.99565 -82.78215 2286 ft 164 kts 277°
2026-05-09 01:46 39.99703 -82.79634 2048 ft 152 kts 274°
2026-05-09 01:46 39.99778 -82.80938 1843 ft 137 kts 272°
2026-05-09 01:46 39.99838 -82.82143 1665 ft 131 kts 273°
2026-05-09 01:47 39.99902 -82.83341 1505 ft 133 kts 274°
2026-05-09 01:47 39.99969 -82.84539 1339 ft 134 kts 274°
2026-05-09 01:47 40.00038 -82.85763 1162 ft 136 kts 274°
2026-05-09 01:47 40.00107 -82.86997 980 ft 138 kts 275°
2026-05-09 01:48 40.00178 -82.88259 806 ft 135 kts 275°
2026-05-09 01:48 40.00229 -82.89144 816 ft 56 kts 274°
2026-05-09 01:48 40.00257 -82.89632 816 ft 49 kts 274°
2026-05-09 01:48 40.00174 -82.89761 816 ft 10 kts 120°
2026-05-09 01:49 40.00162 -82.89669 816 ft 10 kts 91°
2026-05-09 01:49 40.00157 -82.89569 816 ft 11 kts 96°
2026-05-09 01:49 40.00151 -82.89465 816 ft 11 kts 94°
2026-05-09 01:49 40.00145 -82.89354 816 ft 12 kts 94°
2026-05-09 01:50 40.00142 -82.89204 816 ft 22 kts 88°
2026-05-09 01:50 40.00124 -82.88993 813 ft 23 kts 95°
2026-05-09 01:50 40.00113 -82.88788 813 ft 22 kts 93°
2026-05-09 01:50 40.00101 -82.88593 813 ft 21 kts 94°
2026-05-09 01:51 40.00093 -82.88399 811 ft 18 kts 93°
2026-05-09 01:51 40.00036 -82.88299 812 ft 14 kts 171°
2026-05-09 01:51 39.99977 -82.88226 813 ft 12 kts 101°
2026-05-09 01:51 39.99967 -82.88117 813 ft 9 kts 98°
2026-05-09 01:52 39.99934 -82.88083 813 ft 3 kts 161°
2026-05-09 01:52 39.99914 -82.88076 813 ft 3 kts 167°
2026-05-09 01:52 39.99911 -82.88075 813 ft 0 kts 167°
2026-05-09 01:52 39.99904 -82.88073 813 ft 2 kts 167°
2026-05-09 01:53 39.99901 -82.88072 813 ft 0 kts 167°